Location: Vinland
(47.7731°N, 122.6974°W)
Time: 18:08:34
(UTC+00:00)

Vanguard 1 Rocket - Pass Details

Date: 26 March 2023
Orbit: 654 x 4221 km, 34.3° (Epoch: 29 May)

Event Time Altitude Azimuth Distance (km) Brightness Sun altitude
Rises 07:15:10 0° 238° (WSW) 8,384 12.2 -38.3°
Reaches altitude 10° 07:21:43 10° 233° (SW) 7,132 11.7 -38.7°
Enters shadow 07:31:11 27° 220° (SW) 5,243 10.9 -39.1°
